[[{"header":{"parameterUnit":"m.s-1","parameterCategory":1,"la1":30.2991,"la2":30.254,"lo1":-89.0895,"lo2":-89.0444,"dy":0.0017,"dx":0.0017,"nx":28,"ny":28,"refTime":"2024-05-20T09:00:00:Z","depth":0,"parameterNumber":2,"parameterNumberName":"U-component_of_WINDS"},"data":[0,0,0,0,0,0,0,0,0,0,0,0,0,0,0,0,0,0,0,0,0,0,0,0,0,0,0,0,0,0,0,0,0,0,0,0,0,0,0,0,0,0,0,0,0,0,0,0,0,0,0,0,0,0,0,0,0,0,-2.9214,-2.9213,0,-2.9168,-2.9167,-2.9167,-2.9093,-2.9092,-2.909,-2.9089,-2.9044,-2.9045,-2.9045,0,0,0,0,0,0,0,0,0,0,0,0,0,-2.924,-2.924,-2.9214,-2.9213,-2.9212,-2.9168,-2.9167,-2.9167,-2.9093,-2.9091,-2.909,-2.9088,-2.9044,-2.9045,-2.9045,0,0,0,0,0,0,0,0,0,0,0,0,0,-2.9215,-2.924,-2.9214,-2.917,-2.9166,-2.9168,-2.9167,-2.9167,-2.9093,-2.9091,-2.9089,-2.9087,-2.9044,-2.9045,-2.9045,-2.9086,0,0,-2.9045,-2.9045,0,0,0,0,0,0,0,0,-2.9216,-2.9214,-2.9177,-2.9173,-2.9168,-2.9134,-2.916,-2.914,-2.9094,-2.9121,-2.9089,-2.9086,-2.9076,-2.9073,-2.9069,-2.9084,-2.9082,-2.9045,-2.9045,-2.9045,-2.9045,0,0,0,0,0,0,0,-2.9218,-2.9216,-2.9196,-2.9177,-2.9171,-2.9154,-2.9148,-2.9156,-2.9111,-2.9119,-2.9113,-2.9109,-2.9073,-2.907,-2.9068,-2.9082,-2.9045,-2.9045,-2.9045,-2.9045,-2.9131,-2.9133,0,0,0,0,0,0,-2.9226,-2.9217,-2.9197,-2.9194,-2.9188,-2.9155,-2.9149,-2.9147,-2.911,-2.9103,-2.911,-2.9105,-2.907,-2.9068,-2.9066,-2.9114,-2.9045,-2.9045,-2.9045,-2.9129,-2.9131,-2.9134,0,0,0,0,0,0,-2.9227,-2.9225,-2.9199,-2.9204,-2.92,-2.9157,-2.9156,-2.9147,-2.9143,-2.9104,-2.9096,-2.9115,-2.9069,-2.9066,-2.9082,-2.9111,-2.9045,-2.9046,-2.9126,-2.9129,-2.9132,-2.9209,0,0,0,0,0,0,-2.9228,-2.9226,-2.924,-2.9205,-2.92,-2.9215,-2.9157,-2.9148,-2.9144,-2.9137,-2.9106,-2.9099,-2.9067,-2.9082,-2.9082,-2.911,-2.9046,-2.9123,-2.9127,-2.9131,-2.9204,-2.9215,-2.9224,0,0,0,0,0,-2.9229,-2.9264,-2.9241,-2.9239,-2.9217,-2.9217,-2.9214,-2.9175,-2.9146,-2.9161,-2.9136,-2.91,-2.9108,-2.9085,-2.9084,-2.9113,-2.9121,-2.9126,-2.9131,-2.92,-2.9213,-2.9224,0,0,0,0,0,0,-2.9304,-2.9258,-2.9233,-2.9257,-2.9241,-2.9204,-2.9222,-2.919,-2.9183,-2.9177,-2.913,-2.9124,-2.9147,-2.9131,-2.9106,-2.9152,-2.9109,-2.9114,-2.9162,-2.9174,-2.9184,-2.9188,-2.9046,0,0,0,0,0,-2.9323,-2.9326,-2.9286,-2.9311,-2.9305,-2.9265,-2.9263,-2.9235,-2.9217,-2.9211,-2.9187,-2.9172,-2.9171,-2.9171,-2.9168,-2.9201,-2.9195,-2.9221,-2.9231,-2.9239,-2.9245,-2.9263,-2.9275,-2.915,-2.915,-2.915,0,0,-2.9362,-2.9338,-2.9343,-2.9326,-2.931,-2.9316,-2.926,-2.9267,-2.9271,-2.9212,-2.9226,-2.9208,-2.9188,-2.9214,-2.9224,-2.9202,-2.9278,-2.9245,-2.9252,-2.9253,-2.9269,-2.9281,-2.9292,-2.9153,-2.9152,-2.9152,0,0,-2.9438,-2.9419,-2.9439,-2.9425,-2.9402,-2.9375,-2.938,-2.9348,-2.9334,-2.9348,-2.9304,-2.9308,-2.9307,-2.9295,-2.9289,-2.9362,-2.9329,-2.9362,-2.9415,-2.9434,-2.9444,-2.9452,-2.948,-2.9491,-2.9368,-2.9368,-2.9368,0,-2.949,-2.9496,-2.9453,-2.9464,-2.9459,-2.9405,-2.9425,-2.9414,-2.9392,-2.939,-2.9365,-2.9364,-2.9346,-2.9369,-2.9387,-2.9384,-2.9389,-2.9366,-2.9446,-2.9454,-2.9461,-2.9487,-2.9498,-2.9372,-2.9372,-2.9371,-2.9371,0,-2.9562,-2.9567,-2.9586,-2.9566,-2.9562,-2.9578,-2.9539,-2.9541,-2.9514,-2.9491,-2.9506,-2.9483,-2.9476,-2.9479,-2.9452,-2.9499,-2.9486,-2.9454,-2.941,-2.9478,-2.9502,-2.9512,-2.9378,-2.9377,-2.9375,-2.9374,0,0,-2.9683,-2.964,-2.9648,-2.9639,-2.9611,-2.9614,-2.9628,-2.962,-2.9624,-2.9611,-2.9622,-2.9624,-2.9594,-2.9588,-2.9559,-2.9575,-2.9637,-2.9541,-2.954,-2.9561,-2.969,-2.9715,-2.9727,-2.9614,-2.9616,-2.9617,-2.9692,0,-2.9754,-2.9775,-2.9738,-2.9768,-2.9773,-2.9723,-2.9735,-2.972,-2.9699,-2.9701,-2.9678,-2.968,-2.964,-2.9636,-2.965,-2.9627,-2.9662,-2.962,-2.9627,-2.9628,-2.9635,-2.9739,-2.9765,-2.9837,-2.9701,-2.9702,-2.9703,0,-2.9839,-2.9831,-2.9861,-2.9833,-2.9834,-2.9845,-2.9836,-2.9838,-2.9821,-2.9804,-2.9798,-2.9764,-2.9777,-2.9734,-2.9753,-2.9726,-2.9726,-2.9715,-2.9717,-2.9717,-2.9671,-2.9744,-2.9858,-2.987,-2.9717,-2.9716,-2.9715,0,-2.9926,-2.9922,-2.9941,-2.9935,-2.9901,-2.9911,-2.9898,-2.9878,-2.9876,-2.9869,-2.9867,-2.9862,-2.9859,-2.9856,-2.9822,-2.9794,-2.9846,-2.98,-2.9834,-2.9835,-2.9848,-2.9848,-2.9966,-2.9847,-2.9846,-2.9846,-2.9846,0,-3.001,-3.0031,-2.998,-2.9991,-3.0015,-2.9972,-2.9997,-2.9978,-2.9961,-2.997,-2.9925,-2.9934,-2.9889,-2.9893,-2.9867,-2.9888,-2.9886,-2.9875,-2.9868,-2.988,-2.9882,-2.988,-2.9875,-2.9849,-2.9848,-2.9848,-2.9847,0,-3.0112,-3.0078,-3.0095,-3.0062,-3.0055,-3.0073,-3.0046,-3.0056,-3.0032,-3.0044,-3.0044,-3.0007,-3.001,-2.9976,-2.9972,-2.9955,-2.9989,-2.9972,-2.9995,-2.999,-3.0028,-3.0025,-3.015,-3.0165,-3.0034,-3.0036,-3.0037,0,-3.0168,-3.0183,-3.0153,-3.0155,-3.0144,-3.0148,-3.0146,-3.0105,-3.0106,-3.0088,-3.0101,-3.01,-3.0097,-3.0105,-3.0079,-3.0076,-3.0061,-3.0104,-3.006,-3.0072,-3.0063,-3.0064,-3.0066,-3.0114,-3.0116,-3.0117,-3.0118,0,-3.0272,-3.0255,-3.0254,-3.0248,-3.0247,-3.024,-3.023,-3.0235,-3.019,-3.0193,-3.0196,-3.0194,-3.0191,-3.0191,-3.0184,-3.0171,-3.0139,-3.0132,-3.0141,-3.0154,-3.0167,-3.0162,-3.0022,-3.013,-3.0129,-3.0128,-3.0127,-3.0127,-3.0354,-3.0366,-3.0347,-3.0347,-3.0336,-3.0328,-3.0337,-3.0315,-3.0316,-3.031,-3.0286,-3.0293,-3.0277,-3.0264,-3.0255,-3.0261,-3.024,-3.0251,-3.0254,-3.0258,-3.0266,-3.0165,-3.0259,-3.0259,-3.0258,-3.0258,-3.0258,0,-3.0457,-3.0443,-3.0444,-3.0432,-3.0433,-3.0401,-3.0389,-3.0393,-3.0399,-3.0387,-3.0385,-3.0389,-3.039,-3.0365,-3.0363,-3.0373,-3.0358,-3.0374,-3.0373,-3.0372,-3.0284,-3.0278,-3.0386,-3.0386,-3.0386,-3.0386,-3.0386,-3.0386,-3.0511,-3.0531,-3.0512,-3.0526,-3.0511,-3.0517,-3.0514,-3.0507,-3.0497,-3.0504,-3.0504,-3.0487,-3.047,-3.0466,-3.0467,-3.0459,-3.0461,-3.0483,-3.0471,-3.039,-3.0377,-3.0366,-3.036,-3.0483,-3.0483,-3.0558,-3.0559,-3.0559]},{"header":{"parameterUnit":"m.s-1","parameterCategory":1,"la1":30.2991,"la2":30.254,"lo1":-89.0895,"lo2":-89.0444,"dy":0.0017,"dx":0.0017,"nx":28,"ny":28,"refTime":"2024-05-20T09:00:00:Z","depth":0,"parameterNumber":3,"parameterNumberName":"V-component_of_WINDS"},"data":[0,0,0,0,0,0,0,0,0,0,0,0,0,0,0,0,0,0,0,0,0,0,0,0,0,0,0,0,0,0,0,0,0,0,0,0,0,0,0,0,0,0,0,0,0,0,0,0,0,0,0,0,0,0,0,0,0,0,-0.6925,-0.6926,0,-0.6972,-0.6973,-0.6973,-0.6957,-0.6956,-0.6955,-0.6954,-0.7004,-0.7006,-0.7008,0,0,0,0,0,0,0,0,0,0,0,0,0,-0.6822,-0.6824,-0.6925,-0.6926,-0.6927,-0.6972,-0.6973,-0.6974,-0.6957,-0.6956,-0.6955,-0.6953,-0.7003,-0.7005,-0.7008,0,0,0,0,0,0,0,0,0,0,0,0,0,-0.6868,-0.6825,-0.6925,-0.6924,-0.6924,-0.6972,-0.6973,-0.6974,-0.6957,-0.6956,-0.6954,-0.6953,-0.7002,-0.7005,-0.7009,-0.7061,0,0,-0.7019,-0.7021,0,0,0,0,0,0,0,0,-0.6865,-0.6872,-0.6924,-0.6924,-0.6925,-0.6957,-0.6955,-0.7003,-0.6958,-0.6945,-0.6954,-0.6952,-0.6989,-0.6994,-0.7006,-0.7063,-0.7066,-0.7019,-0.7021,-0.7023,-0.7024,0,0,0,0,0,0,0,-0.6862,-0.687,-0.6944,-0.6924,-0.6925,-0.6921,-0.6926,-0.6964,-0.6975,-0.6946,-0.6945,-0.6951,-0.6989,-0.7003,-0.7007,-0.7066,-0.7019,-0.7022,-0.7024,-0.7026,-0.7169,-0.717,0,0,0,0,0,0,-0.6859,-0.6867,-0.6942,-0.6945,-0.689,-0.6924,-0.693,-0.6948,-0.6975,-0.6977,-0.6952,-0.695,-0.6998,-0.7003,-0.7009,-0.7072,-0.7023,-0.7026,-0.7028,-0.7167,-0.7169,-0.7171,0,0,0,0,0,0,-0.6857,-0.6866,-0.6941,-0.6906,-0.6915,-0.6928,-0.6949,-0.695,-0.6963,-0.6979,-0.6981,-0.6963,-0.6997,-0.7004,-0.7048,-0.7074,-0.7028,-0.7031,-0.7165,-0.7168,-0.717,-0.72,0,0,0,0,0,0,-0.6854,-0.6865,-0.6885,-0.6907,-0.6917,-0.6979,-0.695,-0.6952,-0.6969,-0.6967,-0.6991,-0.6993,-0.6996,-0.7043,-0.7051,-0.7078,-0.7034,-0.7163,-0.7166,-0.7169,-0.7197,-0.7203,-0.7208,0,0,0,0,0,-0.685,-0.6892,-0.6886,-0.6895,-0.6942,-0.6981,-0.6987,-0.6989,-0.6971,-0.6992,-0.7002,-0.6993,-0.7069,-0.7048,-0.7057,-0.7085,-0.7161,-0.7165,-0.7169,-0.7194,-0.7202,-0.7208,0,0,0,0,0,0,-0.6874,-0.6895,-0.6889,-0.6939,-0.6958,-0.6978,-0.7004,-0.6997,-0.7022,-0.7019,-0.702,-0.7026,-0.7071,-0.7082,-0.7058,-0.7137,-0.7113,-0.7119,-0.7128,-0.7136,-0.7142,-0.7139,-0.7036,0,0,0,0,0,-0.6885,-0.6914,-0.693,-0.6973,-0.6983,-0.6991,-0.7008,-0.7008,-0.7028,-0.7036,-0.705,-0.707,-0.7099,-0.7118,-0.7145,-0.7197,-0.7203,-0.7221,-0.7227,-0.7232,-0.7237,-0.7266,-0.7274,-0.7184,-0.7184,-0.7184,0,0,-0.6908,-0.6923,-0.6941,-0.6978,-0.6993,-0.7023,-0.6999,-0.7032,-0.7054,-0.7042,-0.7084,-0.7094,-0.7117,-0.7166,-0.7188,-0.7176,-0.7263,-0.7237,-0.724,-0.7243,-0.7271,-0.7279,-0.7287,-0.7186,-0.7186,-0.7186,0,0,-0.6966,-0.698,-0.7017,-0.7032,-0.7055,-0.706,-0.7069,-0.7089,-0.7096,-0.7138,-0.7129,-0.7155,-0.7205,-0.7221,-0.7236,-0.7299,-0.7291,-0.7307,-0.734,-0.7367,-0.7375,-0.7381,-0.7404,-0.7412,-0.7313,-0.7313,-0.7313,0,-0.6993,-0.7038,-0.7037,-0.7071,-0.7087,-0.7076,-0.7113,-0.7128,-0.7159,-0.717,-0.7156,-0.7218,-0.7232,-0.7284,-0.73,-0.7312,-0.7322,-0.7306,-0.7373,-0.738,-0.7386,-0.7408,-0.7416,-0.7315,-0.7314,-0.7314,-0.7314,0,-0.7069,-0.71,-0.7127,-0.7156,-0.7176,-0.7211,-0.7216,-0.7236,-0.7233,-0.724,-0.7283,-0.7299,-0.733,-0.7342,-0.734,-0.7394,-0.7386,-0.7373,-0.7349,-0.7396,-0.7417,-0.7426,-0.7317,-0.7317,-0.7316,-0.7316,0,0,-0.7146,-0.7173,-0.7183,-0.7196,-0.7219,-0.7243,-0.7278,-0.7307,-0.7324,-0.7344,-0.7374,-0.7415,-0.7403,-0.7419,-0.7419,-0.7443,-0.7492,-0.7427,-0.7428,-0.744,-0.7553,-0.7564,-0.7574,-0.7487,-0.7488,-0.749,-0.7552,0,-0.7207,-0.7267,-0.7267,-0.7323,-0.7352,-0.7341,-0.7371,-0.7388,-0.7395,-0.7421,-0.7428,-0.7458,-0.7439,-0.7449,-0.7472,-0.7482,-0.7516,-0.7477,-0.7515,-0.7516,-0.7511,-0.7585,-0.7596,-0.7654,-0.756,-0.7561,-0.7562,0,-0.7286,-0.7309,-0.7368,-0.7386,-0.7398,-0.7425,-0.7452,-0.7476,-0.7495,-0.7498,-0.7516,-0.7512,-0.7547,-0.7521,-0.757,-0.7543,-0.7558,-0.7565,-0.7568,-0.7573,-0.7543,-0.7593,-0.7673,-0.7682,-0.7575,-0.7574,-0.7573,0,-0.7337,-0.7382,-0.7423,-0.7435,-0.7457,-0.7476,-0.7486,-0.7504,-0.7521,-0.7544,-0.7555,-0.7582,-0.7597,-0.7617,-0.762,-0.7601,-0.767,-0.7643,-0.7674,-0.7674,-0.7691,-0.769,-0.7776,-0.7698,-0.7698,-0.7698,-0.7698,0,-0.7406,-0.7443,-0.7447,-0.7472,-0.7513,-0.7512,-0.7552,-0.7561,-0.7576,-0.7603,-0.7594,-0.762,-0.7621,-0.7648,-0.765,-0.769,-0.7697,-0.7701,-0.7701,-0.7703,-0.7702,-0.7714,-0.7711,-0.77,-0.77,-0.7699,-0.7699,0,-0.7471,-0.7475,-0.7519,-0.7536,-0.7541,-0.757,-0.7585,-0.7609,-0.7614,-0.7648,-0.7656,-0.7664,-0.7695,-0.7699,-0.7735,-0.7736,-0.7785,-0.778,-0.7778,-0.7778,-0.7809,-0.7807,-0.7906,-0.792,-0.7832,-0.7833,-0.7834,0,-0.7516,-0.7544,-0.7563,-0.758,-0.7591,-0.7619,-0.7636,-0.7635,-0.7654,-0.7677,-0.7699,-0.7728,-0.7751,-0.78,-0.781,-0.7837,-0.7834,-0.7867,-0.7838,-0.7838,-0.7836,-0.7835,-0.7838,-0.7873,-0.7874,-0.7875,-0.7875,0,-0.7594,-0.7595,-0.7619,-0.7645,-0.7665,-0.7685,-0.7704,-0.7719,-0.7721,-0.7741,-0.7772,-0.779,-0.7826,-0.7855,-0.7882,-0.7892,-0.7885,-0.7884,-0.7893,-0.7895,-0.7893,-0.7896,-0.7795,-0.7882,-0.7882,-0.7881,-0.7881,-0.788,-0.7651,-0.7676,-0.7693,-0.772,-0.7734,-0.7752,-0.7775,-0.7783,-0.7808,-0.7837,-0.7835,-0.7868,-0.7886,-0.7921,-0.7933,-0.796,-0.7949,-0.7962,-0.7965,-0.7968,-0.7972,-0.7887,-0.7964,-0.7964,-0.7964,-0.7964,-0.7964,0,-0.7731,-0.7741,-0.7766,-0.7792,-0.7814,-0.7803,-0.7823,-0.7842,-0.7872,-0.7889,-0.7912,-0.7947,-0.7975,-0.7986,-0.8013,-0.8032,-0.8029,-0.804,-0.8039,-0.8042,-0.7979,-0.797,-0.8041,-0.8041,-0.8041,-0.8041,-0.8041,-0.8041,-0.7775,-0.7815,-0.7817,-0.7864,-0.7874,-0.7906,-0.7919,-0.7935,-0.7948,-0.7987,-0.801,-0.8017,-0.8031,-0.806,-0.8085,-0.8087,-0.8098,-0.8111,-0.8112,-0.8054,-0.8046,-0.8039,-0.8029,-0.8113,-0.8113,-0.8172,-0.8172,-0.8173]}]]